Content
SEND FEEDBACK

Daily
Averages
Monthly
Summary
United States of America

SNOWMASS VILLAGE, COLORADO


Home > North America > United States > Colorado
Elevation: 8405 feet     Latitude: 39 11N     Longitude: 106 50W

WEATHER
 
SELECT A DAY
Number of Records: 187,929;   Date Range: 1/1/95 - 10/1/14
 
SHARE

PRINT THIS DATA

[ ← Previous Day ]
WEATHER ALMANAC - AUGUST 18, 2014
[ Next Day → ]
[ °C ]   °F
Weather ElementAverageHighLow
Temperature65.3 °F81 °F (3:53 pm)48 °F (5:53 am)
Dewpoint35.7 °F39.9 °F (4:53 pm)30 °F (4:53 pm)
Humidity37 %61 % (1:53 am)16 % (4:53 pm)
Barometer29.92 in30.31 in (11:25 am)29.80 in (5:53 pm)
Wind Speed7.5 mph13.8 mph (12:38 pm)
Wind Gust19.6 mph (11:42 am)
Weather ElementAverage
Visibility10 mi
Wind DirectionSSE (168.3 °)

Weather ElementTotal
Precipitation---
Heating Degree Days0.5 (Base 65)
Growing Degree Days14.5 (Base 50)
Averaged from 23 records on August 18, 2014
WEATHER CONDITIONS BREAKOUT
WIND DIRECTION BREAKOUT
WEATHER BY HOUR - AUGUST 18, 2014
[ °C ]   °F
Local TimeTemperatureDewpointHumidityBarometerVisibilityWind DirectionWind SpeedGust SpeedPrecipitationEventsConditions
1:53 AM54.0 °F35.1 °F49 %29.93 in10.0 miSouth (180°)6.9 mphClear
2:53 AM50.0 °F36.0 °F59 %29.93 in10.0 miSW (220°)10.4 mphClear
3:53 AM52.0 °F35.1 °F53 %29.95 in10.0 miSSW (210°)9.2 mphClear
4:53 AM51.1 °F35.1 °F54 %29.94 in10.0 miSSW (210°)8.1 mphClear
5:53 AM52.0 °F34.0 °F50 %29.96 in10.0 miSSW (210°)8.1 mphClear
6:53 AM48.0 °F35.1 °F61 %30.00 in10.0 miCalmClear
7:53 AM53.1 °F37.0 °F55 %30.01 in10.0 miCalmClear
8:53 AM60.1 °F37.0 °F42 %30.01 in10.0 miNorth (350°)3.5 mphClear
9:53 AM68.0 °F36.0 °F31 %29.95 in10.0 miNNE (20°)3.5 mphClear
10:53 AM73.9 °F39.0 °F28 %29.93 in10.0 miNNE (20°)6.9 mphClear
11:25 AM75.9 °F37.0 °F24 %30.31 in10.0 miNNW (330°)12.7 mph19.6 mphClear
11:53 AM77.0 °F35.1 °F22 %29.92 in10.0 miNNE (20°)8.1 mphClear
12:53 PM79.0 °F36.0 °F21 %29.89 in10.0 miSouth (170°)13.8 mph19.6 mphScattered Clouds
1:53 PM73.9 °F36.0 °F25 %29.91 in10.0 miSE (140°)8.1 mph13.8 mphMostly Cloudy
2:53 PM75.0 °F37.0 °F25 %29.90 in10.0 miNorth (350°)11.5 mphScattered Clouds
3:53 PM77.0 °F33.1 °F20 %29.85 in10.0 miNE (40°)8.1 mphScattered Clouds
4:53 PM81.0 °F30.0 °F16 %29.83 in10.0 miNNW (340°)12.7 mph17.3 mphScattered Clouds
5:53 PM81.0 °F30.9 °F16 %29.80 in10.0 miNorth (10°)6.9 mphScattered Clouds
6:53 PM75.9 °F30.9 °F19 %29.83 in10.0 miWest (270°)4.6 mphClear
7:53 PM70.0 °F39.9 °F33 %29.85 in10.0 miSSE (160°)6.9 mphClear
8:53 PM60.1 °F39.9 °F47 %29.88 in10.0 miSSW (210°)9.2 mphClear
10:53 PM57.0 °F37.9 °F49 %29.83 in10.0 miSSW (200°)8.1 mphClear
11:53 PM55.9 °F37.9 °F51 %29.82 in10.0 miSSW (210°)5.8 mphClear
Hourly data recorded from KASE, located miles away from Snowmass Village, Colorado







STORIES FROM OUR PARTNERS